User: anonymous   Login
Location: Unspecified
(0.0000°N, 0.0000°E)
Time: 01:11:03
(UTC+00:00)
Language:

MUOS 2 - Orbit

View from above orbital plane
View from above orbital plane
View from above satellite
View from above satellite

Ground track
Ground track

The orbit data is extracted from the following two-line orbital elements,

1 39206U 13036A   24106.56395116  .00000058  00000-0  00000-0 0  9995
2 39206   3.5251  39.6312 0048427 181.9414   8.6765  1.00278592 39249
Epoch (UTC): 15 April 2024 13:32:05
Eccentricity: 0.0048427
inclination: 3.5251°
perigee height: 35580 km
apogee height: 35988 km
right ascension of ascending node: 39.6312°
argument of perigee: 181.9414°
revolutions per day: 1.00278592
mean anomaly at epoch: 8.6765°
orbit number at epoch: 3924

The dashed part of the orbit path shows where the satellite is in the earth's shadow,  

DLR